Météo par heure à Alkino

Ce jour, 13 Mai, Jeudi

Heure Température Précipitation Vent Pression Humidité
00:00 +19°C° 0 mm 1 m/s 759 mmHg 51%
01:00 +18°C° 0 mm 1 m/s 759 mmHg 52%
02:00 +18°C° 0 mm 1 m/s 759 mmHg 52%
03:00 +15°C° 0 mm 0 m/s 759 mmHg 53%
04:00 +15°C° 0 mm 0 m/s 759 mmHg 53%
05:00 +16°C° 0 mm 0 m/s 759 mmHg 52%
06:00 +17°C° 0 mm 0 m/s 759 mmHg 50%
07:00 +18°C° 0 mm 0 m/s 759 mmHg 48%
08:00 +22°C° 0 mm 1 m/s 759 mmHg 45%
09:00 +23°C° 0 mm 1 m/s 759 mmHg 42%
10:00 +25°C° 0 mm 1 m/s 759 mmHg 39%
11:00 +26°C° 0 mm 1 m/s 759 mmHg 37%
12:00 +27°C° 0 mm 1 m/s 759 mmHg 36%
13:00 +28°C° 0 mm 1 m/s 759 mmHg 34%
14:00 +28°C° 0 mm 1 m/s 758 mmHg 33%
15:00 +28°C° 0 mm 1 m/s 758 mmHg 32%
16:00 +29°C° 0 mm 1 m/s 758 mmHg 31%
17:00 +28°C° 0 mm 1 m/s 758 mmHg 35%
18:00 +27°C° 0 mm 1 m/s 758 mmHg 39%
19:00 +26°C° 0 mm 1 m/s 757 mmHg 44%
20:00 +24°C° 0 mm 1 m/s 758 mmHg 46%
21:00 +23°C° 0 mm 1 m/s 758 mmHg 49%
22:00 +20°C° 0 mm 2 m/s 758 mmHg 52%
23:00 +20°C° 0 mm 1 m/s 758 mmHg 52%

Demain, 14 Mai, Vendredi

Heure Température Précipitation Vent Pression Humidité
00:00 +20°C° 0 mm 1 m/s 758 mmHg 51%
01:00 +19°C° 0 mm 1 m/s 758 mmHg 51%
02:00 +19°C° 0 mm 1 m/s 758 mmHg 51%
03:00 +17°C° 0 mm 2 m/s 758 mmHg 52%
04:00 +17°C° 0 mm 2 m/s 758 mmHg 52%
05:00 +18°C° 0 mm 2 m/s 758 mmHg 52%
06:00 +19°C° 0 mm 2 m/s 758 mmHg 52%
07:00 +20°C° 0 mm 2 m/s 758 mmHg 52%
08:00 +21°C° 0 mm 3 m/s 758 mmHg 48%
09:00 +24°C° 0 mm 3 m/s 758 mmHg 43%
10:00 +26°C° 0 mm 4 m/s 758 mmHg 39%
11:00 +27°C° 0 mm 4 m/s 758 mmHg 37%
12:00 +28°C° 0 mm 4 m/s 758 mmHg 35%
13:00 +29°C° 0 mm 4 m/s 758 mmHg 33%
14:00 +29°C° 0 mm 4 m/s 758 mmHg 32%
15:00 +29°C° 0 mm 4 m/s 757 mmHg 32%
16:00 +30°C° 0 mm 4 m/s 757 mmHg 32%
17:00 +28°C° 0 mm 3 m/s 757 mmHg 38%
18:00 +27°C° 0 mm 3 m/s 757 mmHg 44%
19:00 +26°C° 0 mm 2 m/s 757 mmHg 49%
20:00 +25°C° 0 mm 2 m/s 757 mmHg 51%
21:00 +23°C° 0 mm 2 m/s 757 mmHg 52%
22:00 +21°C° 0 mm 2 m/s 757 mmHg 53%
23:00 +20°C° 0 mm 2 m/s 756 mmHg 54%

Après-demain, 15 Mai, Samedi

Heure Température Précipitation Vent Pression Humidité
00:00 +20°C° 0 mm 2 m/s 756 mmHg 56%
01:00 +19°C° 0 mm 2 m/s 756 mmHg 57%
02:00 +19°C° 0 mm 2 m/s 756 mmHg 57%
03:00 +18°C° 0 mm 2 m/s 757 mmHg 57%
04:00 +18°C° 0 mm 2 m/s 757 mmHg 58%
05:00 +19°C° 0 mm 2 m/s 757 mmHg 56%
06:00 +20°C° 0 mm 2 m/s 757 mmHg 55%
07:00 +21°C° 0 mm 2 m/s 757 mmHg 54%
08:00 +24°C° 0 mm 2 m/s 757 mmHg 49%
09:00 +26°C° 0 mm 3 m/s 757 mmHg 44%
10:00 +28°C° 0 mm 3 m/s 757 mmHg 38%
11:00 +29°C° 0 mm 4 m/s 757 mmHg 35%
12:00 +30°C° 0 mm 4 m/s 756 mmHg 32%
13:00 +32°C° 0 mm 4 m/s 756 mmHg 29%
14:00 +31°C° 0 mm 3 m/s 756 mmHg 29%
15:00 +31°C° 0 mm 3 m/s 756 mmHg 28%
16:00 +31°C° 0 mm 3 m/s 756 mmHg 28%
17:00 +30°C° 0 mm 3 m/s 755 mmHg 34%
18:00 +28°C° 0 mm 2 m/s 755 mmHg 39%
19:00 +27°C° 0 mm 2 m/s 755 mmHg 45%
20:00 +26°C° 0 mm 2 m/s 755 mmHg 46%
21:00 +24°C° 0 mm 2 m/s 755 mmHg 47%
22:00 +23°C° 0 mm 2 m/s 755 mmHg 48%
23:00 +21°C° 0 mm 2 m/s 755 mmHg 50%

16 Mai, Dimanche

Heure Température Précipitation Vent Pression Humidité
00:00 +21°C° 0 mm 2 m/s 755 mmHg 51%
01:00 +20°C° 0 mm 2 m/s 755 mmHg 53%
02:00 +21°C° 0 mm 1 m/s 755 mmHg 53%
03:00 +20°C° 0 mm 1 m/s 755 mmHg 54%
04:00 +20°C° 0 mm 1 m/s 755 mmHg 55%
05:00 +21°C° 0 mm 1 m/s 755 mmHg 54%
06:00 +21°C° 0 mm 2 m/s 755 mmHg 54%
07:00 +23°C° 0 mm 2 m/s 756 mmHg 53%
08:00 +25°C° 0 mm 2 m/s 755 mmHg 48%
09:00 +26°C° 0 mm 3 m/s 755 mmHg 44%
10:00 +28°C° 0 mm 3 m/s 755 mmHg 39%
11:00 +29°C° 0 mm 3 m/s 755 mmHg 35%
12:00 +30°C° 0 mm 4 m/s 755 mmHg 32%
13:00 +32°C° 0 mm 4 m/s 754 mmHg 29%
14:00 +32°C° 0 mm 4 m/s 754 mmHg 28%
15:00 +31°C° 0 mm 3 m/s 754 mmHg 28%
16:00 +31°C° 0 mm 3 m/s 754 mmHg 27%
17:00 +30°C° 0 mm 3 m/s 753 mmHg 33%
18:00 +29°C° 0 mm 2 m/s 753 mmHg 38%
19:00 +27°C° 0 mm 2 m/s 753 mmHg 44%
20:00 +26°C° 0 mm 2 m/s 753 mmHg 44%
21:00 +25°C° 0 mm 2 m/s 753 mmHg 44%
22:00 +25°C° 0 mm 2 m/s 753 mmHg 44%
23:00 +24°C° 0 mm 2 m/s 753 mmHg 46%

17 Mai, Lundi

Heure Température Précipitation Vent Pression Humidité
00:00 +23°C° 0 mm 2 m/s 753 mmHg 49%
01:00 +21°C° 0 mm 2 m/s 753 mmHg 52%
02:00 +20°C° 0 mm 2 m/s 753 mmHg 52%
03:00 +20°C° 0 mm 2 m/s 753 mmHg 52%
04:00 +20°C° 0 mm 2 m/s 753 mmHg 52%
05:00 +21°C° 0.2 mm 2 m/s 753 mmHg 53%
06:00 +23°C° 0.2 mm 2 m/s 753 mmHg 54%
07:00 +23°C° 0.2 mm 2 m/s 753 mmHg 55%
08:00 +25°C° 0 mm 2 m/s 753 mmHg 50%
09:00 +27°C° 0 mm 3 m/s 753 mmHg 45%
10:00 +29°C° 0 mm 3 m/s 753 mmHg 40%
11:00 +29°C° 0 mm 3 m/s 753 mmHg 37%
12:00 +30°C° 0 mm 3 m/s 753 mmHg 35%
13:00 +31°C° 0 mm 3 m/s 753 mmHg 33%
14:00 +31°C° 0 mm 3 m/s 752 mmHg 32%
15:00 +31°C° 0 mm 3 m/s 752 mmHg 30%
16:00 +33°C° 0 mm 3 m/s 752 mmHg 29%
17:00 +29°C° 0.1 mm 3 m/s 752 mmHg 38%
18:00 +27°C° 0.1 mm 3 m/s 752 mmHg 46%
19:00 +25°C° 0.1 mm 3 m/s 752 mmHg 55%
20:00 +24°C° 0.1 mm 2 m/s 752 mmHg 55%
21:00 +23°C° 0.1 mm 2 m/s 752 mmHg 56%
22:00 +21°C° 0.1 mm 2 m/s 752 mmHg 56%
23:00 +21°C° 0.1 mm 2 m/s 752 mmHg 59%

18 Mai, Mardi

Heure Température Précipitation Vent Pression Humidité
00:00 +20°C° 0.1 mm 2 m/s 752 mmHg 62%
01:00 +19°C° 0.1 mm 2 m/s 752 mmHg 65%
02:00 +19°C° 0 mm 2 m/s 752 mmHg 67%
03:00 +19°C° 0 mm 1 m/s 752 mmHg 69%
04:00 +19°C° 0 mm 1 m/s 752 mmHg 71%
05:00 +20°C° 0 mm 1 m/s 752 mmHg 69%
06:00 +21°C° 0 mm 1 m/s 753 mmHg 67%
07:00 +22°C° 0 mm 1 m/s 753 mmHg 65%
08:00 +24°C° 0 mm 1 m/s 753 mmHg 61%
09:00 +25°C° 0 mm 2 m/s 753 mmHg 57%
10:00 +26°C° 0 mm 2 m/s 753 mmHg 53%
11:00 +27°C° 0 mm 2 m/s 753 mmHg 50%
12:00 +28°C° 0 mm 3 m/s 753 mmHg 46%
13:00 +29°C° 0 mm 3 m/s 753 mmHg 43%
14:00 +29°C° 0 mm 3 m/s 753 mmHg 42%
15:00 +29°C° 0 mm 4 m/s 753 mmHg 41%
16:00 +29°C° 0 mm 4 m/s 753 mmHg 40%
17:00 +28°C° 0 mm 4 m/s 753 mmHg 44%
18:00 +26°C° 0 mm 3 m/s 753 mmHg 49%
19:00 +25°C° 0 mm 3 m/s 753 mmHg 53%
20:00 +24°C° 0 mm 3 m/s 753 mmHg 54%
21:00 +21°C° 0 mm 2 m/s 754 mmHg 55%
22:00 +20°C° 0 mm 2 m/s 754 mmHg 56%
23:00 +20°C° 0 mm 2 m/s 754 mmHg 58%
Voir plus

Nous avons besoin de votre consentement

Meteoprog et ses fournisseurs de services peuvent stocker et accéder à des données personnelles telles que des cookies, des identifiants d'appareils ou d'autres technologies similaires sur votre appareil et traiter ces données pour personnaliser le contenu et les publicités, ainsi que pour fournir des fonctionnalités de médias sociaux et analyser le trafic.

  • Stocker et/ou accéder à des informations sur votre appareil

    Des cookies, des identifiants d'appareils ou d'autres informations peuvent être stockés ou accessibles sur votre appareil aux fins indiquées ci-dessus.

  • Annonces et contenus personnalisés, mesure des annonces et des contenus, connaissance de l'audience et développement de produits

    Les annonces et le contenu peuvent être personnalisés en fonction d'un profil. D'autres données peuvent être ajoutées pour mieux personnaliser les annonces et le contenu. Les performances des publicités et du contenu peuvent être mesurées. Il est possible d'obtenir des informations sur le public qui a vu les publicités et le contenu. Ces données peuvent être utilisées pour développer ou améliorer l'expérience de l'utilisateur, les systèmes et les logiciels.

En cliquant sur "J'accepte", vous autorisez l'utilisation de cookies, des identifiants d'appareils, des balises web ou d'autres technologies similaires. Vos paramètres peuvent être modifiés dans le navigateur de votre appareil.

Dans certains cas, des intérêts légitimes peuvent être invoqués plutôt qu'un consentement. Vous pouvez en savoir plus à ce sujet dans notre Politique de confidentialité et de cookies.